Wolf Creek Observed Data For Previous 48 Hours

Caption
Day and Hour Reservoir Elevation (behind dam)* Tailwater Elevation (below dam)* Average Hourly Discharge*
9/20/2017 1 AM CDT 707.42 552.02 9,160
9/20/2017 2 AM CDT 707.40 552.00 9,160
9/20/2017 3 AM CDT 707.38 552.08 9,160
9/20/2017 4 AM CDT 707.36 552.06 9,160
9/20/2017 5 AM CDT 707.34 552.04 9,160
9/20/2017 6 AM CDT 707.32 552.02 9,160
9/20/2017 7 AM CDT 707.32 551.82 9,100
9/20/2017 8 AM CDT 707.31 551.81 9,100
9/20/2017 9 AM CDT 707.30 551.80 9,100
9/20/2017 10 AM CDT 707.28 551.88 9,160
9/20/2017 11 AM CDT 707.26 551.86 9,160
9/20/2017 12 PM CDT 707.24 551.84 9,160
9/20/2017 1 PM CDT 707.22 551.82 9,160
9/20/2017 2 PM CDT 707.20 551.80 9,160
9/20/2017 3 PM CDT 707.18 551.88 9,160
9/20/2017 4 PM CDT 707.17 551.87 9,160
9/20/2017 5 PM CDT 707.15 551.85 9,160
9/20/2017 6 PM CDT 707.13 551.83 9,160
9/20/2017 7 PM CDT 707.13 551.93 -999
9/20/2017 8 PM CDT 707.13 551.93 -999
9/20/2017 9 PM CDT 707.13 551.93 -999
9/20/2017 10 PM CDT 707.12 551.92 9,160
9/20/2017 11 PM CDT 707.12 551.92 9,160
9/21/2017 12 AM CDT 707.12 551.92 9,160
9/21/2017 1 AM CDT 707.11 552.01 9,160
9/21/2017 2 AM CDT 707.09 552.09 9,160
9/21/2017 3 AM CDT 707.07 552.07 9,160
9/21/2017 4 AM CDT 707.05 552.05 9,160
9/21/2017 5 AM CDT 707.03 552.03 9,160
9/21/2017 6 AM CDT 707.01 552.01 9,160
9/21/2017 7 AM CDT 707.00 552.00 9,160
9/21/2017 8 AM CDT 706.98 552.08 9,160
9/21/2017 9 AM CDT 706.97 552.07 9,210
9/21/2017 10 AM CDT 706.96 552.06 9,160
9/21/2017 11 AM CDT 706.95 552.05 9,160
9/21/2017 12 PM CDT 706.92 552.02 9,160
9/21/2017 1 PM CDT 706.92 552.02 9,160
9/21/2017 2 PM CDT 706.90 552.00 9,160
9/21/2017 3 PM CDT 706.89 552.09 9,160
9/21/2017 4 PM CDT 706.85 552.05 9,160
9/21/2017 5 PM CDT 706.83 552.03 9,160
9/21/2017 6 PM CDT 706.80 552.00 9,160
9/21/2017 7 PM CDT 706.80 551.90 9,160
9/21/2017 8 PM CDT 706.80 551.90 9,160
9/21/2017 9 PM CDT 706.80 551.90 9,160
9/21/2017 10 PM CDT 706.80 551.90 9,160
9/21/2017 11 PM CDT 706.80 551.90 9,160
9/22/2017 12 AM CDT 706.80 551.90 9,160
9/22/2017 1 AM CDT 706.79 551.99 9,160
9/22/2017 2 AM CDT 706.78 551.98 9,160
9/22/2017 3 AM CDT 706.77 551.97 9,160
9/22/2017 4 AM CDT 706.76 551.96 9,160
9/22/2017 5 AM CDT 706.76 548.56 1,620
9/22/2017 6 AM CDT 706.76 546.76 1,620

Elevations are in feet above sea level. Discharges are in cubic feet per second and are reported at the end of the hour.